Time,TemperatureF,DewpointF,PressureIn,WindDirection,WindDirectionDegrees,WindSpeedMPH,WindSpeedGustMPH,Humidity,HourlyPrecipIn,Conditions,Clouds,dailyrainin,SoftwareType,DateUTC
2013-11-17 00:00:00,60.1,55.2,29.73,SSW,202,11.4,-999.0,84,-99.99,,,0.00,Acu-Link.com,2013-11-17 05:00:00,
2013-11-17 00:16:00,59.9,55.1,29.73,South,180,9.4,-999.0,84,-99.99,,,0.00,Acu-Link.com,2013-11-17 05:16:00,
2013-11-17 00:31:00,60.1,54.9,29.73,SSE,157,6.8,-999.0,83,-99.99,,,0.00,Acu-Link.com,2013-11-17 05:31:00,
2013-11-17 00:46:00,60.1,54.9,29.73,South,180,13.5,-999.0,83,-99.99,,,0.00,Acu-Link.com,2013-11-17 05:46:00,
2013-11-17 01:01:00,60.1,54.9,29.71,SW,225,7.3,-999.0,83,-99.99,,,0.00,Acu-Link.com,2013-11-17 06:01:00,
2013-11-17 01:16:00,60.3,55.1,29.71,SSE,157,10.4,-999.0,83,-99.99,,,0.00,Acu-Link.com,2013-11-17 06:16:00,
2013-11-17 01:32:00,60.6,55.4,29.71,SSE,157,9.4,-999.0,83,-99.99,,,0.00,Acu-Link.com,2013-11-17 06:32:00,
2013-11-17 01:47:00,60.8,55.6,29.71,South,180,6.8,-999.0,83,-99.99,,,0.00,Acu-Link.com,2013-11-17 06:47:00,
2013-11-17 02:02:00,61.2,55.7,29.70,SW,225,10.4,-999.0,82,-99.99,,,0.00,Acu-Link.com,2013-11-17 07:02:00,
2013-11-17 02:17:00,61.2,55.7,29.70,ESE,112,8.3,-999.0,82,-99.99,,,0.00,Acu-Link.com,2013-11-17 07:17:00,
2013-11-17 02:32:00,61.7,56.1,29.70,South,180,6.8,-999.0,82,-99.99,,,0.00,Acu-Link.com,2013-11-17 07:32:00,
2013-11-17 02:47:00,61.9,56.0,29.70,SSE,157,10.4,-999.0,81,-99.99,,,0.00,Acu-Link.com,2013-11-17 07:47:00,
2013-11-17 03:03:00,62.1,56.2,29.70,SSE,157,7.3,-999.0,81,-99.99,,,0.00,Acu-Link.com,2013-11-17 08:03:00,
2013-11-17 03:18:00,62.2,56.3,29.70,South,180,5.8,-999.0,81,-99.99,,,0.00,Acu-Link.com,2013-11-17 08:18:00,
2013-11-17 03:33:00,62.2,56.3,29.70,South,180,8.3,-999.0,81,-99.99,,,0.00,Acu-Link.com,2013-11-17 08:33:00,
2013-11-17 03:48:00,62.1,56.2,29.70,SSW,202,6.8,-999.0,81,-99.99,,,0.00,Acu-Link.com,2013-11-17 08:48:00,
2013-11-17 04:04:00,62.2,56.3,29.70,SE,135,6.8,-999.0,81,-99.99,,,0.00,Acu-Link.com,2013-11-17 09:04:00,
2013-11-17 04:19:00,61.5,56.6,29.68,ESE,112,6.8,-999.0,84,-99.99,,,0.00,Acu-Link.com,2013-11-17 09:19:00,
2013-11-17 04:34:00,61.7,56.8,29.68,SSE,157,7.3,-999.0,84,-99.99,,,0.00,Acu-Link.com,2013-11-17 09:34:00,
2013-11-17 04:49:00,61.7,56.8,29.69,SSE,157,4.7,-999.0,84,-99.99,,,0.00,Acu-Link.com,2013-11-17 09:49:00,
2013-11-17 05:04:00,61.5,56.6,29.69,South,180,7.3,-999.0,84,-99.99,,,0.00,Acu-Link.com,2013-11-17 10:04:00,
2013-11-17 05:19:00,61.7,56.8,29.68,SE,135,11.4,-999.0,84,-99.99,,,0.00,Acu-Link.com,2013-11-17 10:19:00,
2013-11-17 05:34:00,61.9,57.0,29.68,South,180,8.9,-999.0,84,-99.99,,,0.00,Acu-Link.com,2013-11-17 10:34:00,
2013-11-17 05:49:00,61.9,57.0,29.67,South,180,7.3,-999.0,84,-99.99,,,0.00,Acu-Link.com,2013-11-17 10:49:00,
2013-11-17 06:04:00,62.2,57.0,29.67,SSE,157,7.3,-999.0,83,-99.99,,,0.00,Acu-Link.com,2013-11-17 11:04:00,
2013-11-17 06:19:00,62.4,57.2,29.66,South,180,5.3,-999.0,83,-99.99,,,0.00,Acu-Link.com,2013-11-17 11:19:00,
2013-11-17 06:35:00,62.8,57.2,29.65,South,180,14.5,-999.0,82,-99.99,,,0.00,Acu-Link.com,2013-11-17 11:35:00,
2013-11-17 06:50:00,62.8,57.2,29.65,SSE,157,11.9,-999.0,82,-99.99,,,0.00,Acu-Link.com,2013-11-17 11:50:00,
2013-11-17 07:05:00,63.0,57.4,29.64,SSE,157,10.4,-999.0,82,-99.99,,,0.00,Acu-Link.com,2013-11-17 12:05:00,
2013-11-17 07:20:00,63.1,57.5,29.65,SE,135,3.7,-999.0,82,-99.99,,,0.00,Acu-Link.com,2013-11-17 12:20:00,
2013-11-17 07:35:00,63.5,57.6,29.65,South,180,8.9,-999.0,81,-99.99,,,0.00,Acu-Link.com,2013-11-17 12:35:00,
2013-11-17 07:50:00,63.9,58.0,29.65,South,180,11.4,-999.0,81,-99.99,,,0.00,Acu-Link.com,2013-11-17 12:50:00,
2013-11-17 08:05:00,64.0,57.7,29.65,South,180,15.0,-999.0,80,-99.99,,,0.00,Acu-Link.com,2013-11-17 13:05:00,
2013-11-17 08:21:00,64.0,57.7,29.64,South,180,14.5,-999.0,80,-99.99,,,0.00,Acu-Link.com,2013-11-17 13:21:00,
2013-11-17 08:36:00,63.3,58.0,29.64,SSE,157,12.5,-999.0,83,-99.99,,,0.00,Acu-Link.com,2013-11-17 13:36:00,
2013-11-17 08:51:00,63.3,58.0,29.66,SSE,157,9.4,-999.0,83,-99.99,,,0.00,Acu-Link.com,2013-11-17 13:51:00,
2013-11-17 09:06:00,62.2,58.0,29.67,South,180,6.3,-999.0,86,-99.99,,,0.01,Acu-Link.com,2013-11-17 14:06:00,
2013-11-17 09:21:00,61.5,58.2,29.67,South,180,8.3,-999.0,89,-99.99,,,0.03,Acu-Link.com,2013-11-17 14:21:00,
2013-11-17 09:36:00,60.8,58.5,29.68,South,180,9.9,-999.0,92,-99.99,,,0.08,Acu-Link.com,2013-11-17 14:36:00,
2013-11-17 09:52:00,60.4,58.4,29.67,West,270,11.9,-999.0,93,-99.99,,,0.17,Acu-Link.com,2013-11-17 14:52:00,
2013-11-17 10:07:00,60.3,58.6,29.65,South,180,14.0,-999.0,94,-99.99,,,0.25,Acu-Link.com,2013-11-17 15:07:00,
2013-11-17 10:22:00,60.4,58.7,29.65,ESE,112,6.8,-999.0,94,-99.99,,,0.37,Acu-Link.com,2013-11-17 15:22:00,
2013-11-17 10:38:00,60.4,58.7,29.64,South,180,6.3,-999.0,94,-99.99,,,0.39,Acu-Link.com,2013-11-17 15:38:00,
2013-11-17 10:53:00,60.4,58.7,29.65,South,180,9.4,-999.0,94,-99.99,,,0.39,Acu-Link.com,2013-11-17 15:53:00,
2013-11-17 11:08:00,60.4,58.7,29.64,South,180,9.9,-999.0,94,-99.99,,,0.40,Acu-Link.com,2013-11-17 16:08:00,
2013-11-17 11:23:00,60.1,58.4,29.63,South,180,9.4,-999.0,94,-99.99,,,0.43,Acu-Link.com,2013-11-17 16:23:00,
2013-11-17 11:38:00,59.9,58.5,29.64,SSW,202,12.5,-999.0,95,-99.99,,,0.47,Acu-Link.com,2013-11-17 16:38:00,
2013-11-17 11:53:00,59.9,58.5,29.62,SW,225,10.4,-999.0,95,-99.99,,,0.49,Acu-Link.com,2013-11-17 16:53:00,
2013-11-17 12:08:00,59.7,58.6,29.59,SSE,157,6.8,-999.0,96,-99.99,,,0.52,Acu-Link.com,2013-11-17 17:08:00,
2013-11-17 12:23:00,59.7,58.6,29.56,SW,225,15.5,-999.0,96,-99.99,,,0.54,Acu-Link.com,2013-11-17 17:23:00,
2013-11-17 12:38:00,59.7,58.6,29.56,SSE,157,9.4,-999.0,96,-99.99,,,0.60,Acu-Link.com,2013-11-17 17:38:00,
2013-11-17 12:53:00,59.9,58.8,29.58,South,180,14.5,-999.0,96,-99.99,,,0.64,Acu-Link.com,2013-11-17 17:53:00,
2013-11-17 13:09:00,59.9,59.0,29.55,SSE,157,11.4,-999.0,97,-99.99,,,0.67,Acu-Link.com,2013-11-17 18:09:00,
2013-11-17 13:24:00,60.1,59.2,29.53,ESE,112,8.3,-999.0,97,-99.99,,,0.70,Acu-Link.com,2013-11-17 18:24:00,
2013-11-17 13:39:00,60.3,59.4,29.53,SSW,202,8.9,-999.0,97,-99.99,,,0.74,Acu-Link.com,2013-11-17 18:39:00,
2013-11-17 13:54:00,60.3,59.4,29.51,West,270,3.7,-999.0,97,-99.99,,,0.82,Acu-Link.com,2013-11-17 18:54:00,
2013-11-17 14:09:00,60.3,59.4,29.50,SW,225,4.2,-999.0,97,-99.99,,,0.86,Acu-Link.com,2013-11-17 19:09:00,
2013-11-17 14:24:00,60.4,59.5,29.49,South,180,8.9,-999.0,97,-99.99,,,0.88,Acu-Link.com,2013-11-17 19:24:00,
2013-11-17 14:39:00,60.6,59.7,29.48,SSW,202,8.9,-999.0,97,-99.99,,,0.91,Acu-Link.com,2013-11-17 19:39:00,
2013-11-17 14:54:00,60.6,59.7,29.47,South,180,8.3,-999.0,97,-99.99,,,0.92,Acu-Link.com,2013-11-17 19:54:00,
2013-11-17 15:10:00,60.8,59.9,29.47,SE,135,9.4,-999.0,97,-99.99,,,0.94,Acu-Link.com,2013-11-17 20:10:00,
2013-11-17 15:25:00,61.2,60.3,29.46,South,180,10.4,-999.0,97,-99.99,,,0.94,Acu-Link.com,2013-11-17 20:25:00,
2013-11-17 15:40:00,61.5,60.6,29.45,South,180,6.8,-999.0,97,-99.99,,,0.94,Acu-Link.com,2013-11-17 20:40:00,
2013-11-17 15:55:00,62.1,61.2,29.45,South,180,8.9,-999.0,97,-99.99,,,0.94,Acu-Link.com,2013-11-17 20:55:00,
2013-11-17 16:10:00,62.4,61.2,29.45,South,180,6.8,-999.0,96,-99.99,,,0.94,Acu-Link.com,2013-11-17 21:10:00,
2013-11-17 16:26:00,62.4,61.2,29.44,South,180,6.8,-999.0,96,-99.99,,,0.94,Acu-Link.com,2013-11-17 21:26:00,
2013-11-17 16:41:00,62.4,61.5,29.43,SSW,202,4.2,-999.0,97,-99.99,,,0.94,Acu-Link.com,2013-11-17 21:41:00,
2013-11-17 16:56:00,62.6,61.7,29.43,SE,135,6.8,-999.0,97,-99.99,,,0.94,Acu-Link.com,2013-11-17 21:56:00,
2013-11-17 17:11:00,62.8,61.9,29.42,South,180,7.3,-999.0,97,-99.99,,,0.94,Acu-Link.com,2013-11-17 22:11:00,
2013-11-17 17:26:00,62.8,61.9,29.41,SSE,157,8.9,-999.0,97,-99.99,,,0.94,Acu-Link.com,2013-11-17 22:26:00,
2013-11-17 17:41:00,63.0,62.1,29.41,SSE,157,11.4,-999.0,97,-99.99,,,0.95,Acu-Link.com,2013-11-17 22:41:00,
2013-11-17 17:56:00,63.1,62.2,29.43,SW,225,8.9,-999.0,97,-99.99,,,0.98,Acu-Link.com,2013-11-17 22:56:00,
2013-11-17 18:11:00,63.3,62.4,29.43,South,180,5.8,-999.0,97,-99.99,,,0.99,Acu-Link.com,2013-11-17 23:11:00,
2013-11-17 18:27:00,63.7,62.8,29.43,South,180,9.4,-999.0,97,-99.99,,,0.99,Acu-Link.com,2013-11-17 23:27:00,
2013-11-17 18:42:00,63.9,62.7,29.43,SSW,202,10.9,-999.0,96,-99.99,,,0.99,Acu-Link.com,2013-11-17 23:42:00,
2013-11-17 18:57:00,64.2,63.0,29.43,SSW,202,4.7,-999.0,96,-99.99,,,0.99,Acu-Link.com,2013-11-17 23:57:00,
2013-11-17 19:12:00,64.2,63.0,29.42,SSE,157,5.8,-999.0,96,-99.99,,,0.99,Acu-Link.com,2013-11-18 00:12:00,
2013-11-17 19:27:00,64.8,63.3,29.43,SSW,202,6.8,-999.0,95,-99.99,,,0.99,Acu-Link.com,2013-11-18 00:27:00,
2013-11-17 19:42:00,64.6,63.4,29.42,SSE,157,8.3,-999.0,96,-99.99,,,0.99,Acu-Link.com,2013-11-18 00:42:00,
2013-11-17 19:58:00,64.2,63.0,29.44,South,180,5.8,-999.0,96,-99.99,,,0.99,Acu-Link.com,2013-11-18 00:58:00,
2013-11-17 20:13:00,64.2,61.8,29.45,NNE,22,4.2,-999.0,92,-99.99,,,0.99,Acu-Link.com,2013-11-18 01:13:00,
2013-11-17 20:28:00,64.2,61.2,29.47,SW,225,7.8,-999.0,90,-99.99,,,0.99,Acu-Link.com,2013-11-18 01:28:00,
2013-11-17 20:43:00,64.0,60.7,29.50,SSW,202,5.3,-999.0,89,-99.99,,,0.99,Acu-Link.com,2013-11-18 01:43:00,
2013-11-17 20:58:00,63.1,59.8,29.51,NE,45,3.7,-999.0,89,-99.99,,,0.99,Acu-Link.com,2013-11-18 01:58:00,
2013-11-17 21:14:00,62.2,56.3,29.52,SW,225,7.8,-999.0,81,-99.99,,,0.99,Acu-Link.com,2013-11-18 02:14:00,
2013-11-17 21:29:00,61.7,51.4,29.53,NE,45,5.3,-999.0,69,-99.99,,,1.00,Acu-Link.com,2013-11-18 02:29:00,
2013-11-17 21:44:00,60.4,46.4,29.54,WSW,247,6.3,-999.0,60,-99.99,,,1.00,Acu-Link.com,2013-11-18 02:44:00,
2013-11-17 21:59:00,59.5,45.6,29.56,ESE,112,7.8,-999.0,60,-99.99,,,1.00,Acu-Link.com,2013-11-18 02:59:00,
2013-11-17 22:14:00,58.5,46.4,29.57,SW,225,4.7,-999.0,64,-99.99,,,1.00,Acu-Link.com,2013-11-18 03:14:00,
2013-11-17 22:29:00,57.6,45.9,29.58,West,270,3.7,-999.0,65,-99.99,,,1.00,Acu-Link.com,2013-11-18 03:29:00,
2013-11-17 22:45:00,56.3,45.5,29.59,West,270,1.7,-999.0,67,-99.99,,,1.00,Acu-Link.com,2013-11-18 03:45:00,
2013-11-17 23:00:00,54.7,45.1,29.60,SE,135,0.0,-999.0,70,-99.99,,,1.00,Acu-Link.com,2013-11-18 04:00:00,
2013-11-17 23:15:00,54.5,44.9,29.61,West,270,4.2,-999.0,70,-99.99,,,1.00,Acu-Link.com,2013-11-18 04:15:00,
2013-11-17 23:30:00,54.1,44.5,29.61,West,270,2.7,-999.0,70,-99.99,,,1.00,Acu-Link.com,2013-11-18 04:30:00,
2013-11-17 23:46:00,53.4,44.2,29.61,SSE,157,1.7,-999.0,71,-99.99,,,1.00,Acu-Link.com,2013-11-18 04:46:00,